Flag for Spain Weather past 2 weeks in Alicante, Spain

Now
68 °F

Passing clouds.


Feels Like: 68 °F
Forecast: 58 / 72 °F
Wind: 10 mph from Southwest

Location: Alicante / El Altet


UV Index: 3 (Moderate)

Visibility: N/A


Pressure: 29.62 "Hg

Humidity: 40%

Dew point: 43 °F

Location of AlicanteLocation

Historic Weather in Alicante

°F

Alicante temperature yesterday

Maximum temperature yesterday: 75 °F (at 12:30 PM)
Minimum temperature yesterday: 57 °F (at 5:00 AM)
Average temperature yesterday: 68 °F

Past Weeks' High & Low Weather Summary

 TemperatureHumidityPressure
High84 °F (Apr 19, 1:30 PM)100% (Apr 7, 10:30 PM)30.21 "Hg (Apr 7, 10:30 PM)
Low50 °F (Apr 8, 5:30 AM)26% (Apr 15, 4:30 PM)29.56 "Hg (Apr 19, 8:00 PM)
Average65 °F65%30.00 "Hg
* Reported Apr 5 10:00 PM — Apr 20 10:30 PM, Alicante, Weather by CustomWeather, © 2014

Note: Actual official high and low records may vary slightly from our data, if they occured in-between our weather recording intervals... More about our weather records

Advertising

Historic Weather Conditions — Data for Previous 24 hours

 ConditionsComfort  
Time TempWeatherWind HumidityBarometerVisibility
10:30 PM
Apr 20
66 °FPassing clouds.1 mph64%29.62 "HgN/A
10:00 PM68 °FPassing clouds.5 mph64%29.62 "HgN/A
9:30 PM68 °FScattered clouds.2 mph64%29.59 "HgN/A
9:00 PM68 °FScattered clouds.7 mph69%29.59 "HgN/A
8:30 PM70 °FPassing clouds.8 mph60%29.59 "HgN/A
8:00 PM72 °FPassing clouds.10 mph53%29.59 "HgN/A
7:30 PM72 °FScattered clouds.13 mph53%29.56 "HgN/A
7:00 PM73 °FScattered clouds.16 mph44%29.56 "HgN/A
6:30 PM75 °FPassing clouds.14 mph41%29.56 "HgN/A
6:00 PM73 °FPassing clouds.13 mph50%29.56 "HgN/A
5:30 PM73 °FPassing clouds.14 mph50%29.59 "HgN/A
5:00 PM73 °FScattered clouds.17 mph47%29.59 "HgN/A
4:30 PM73 °FScattered clouds.18 mph47%29.59 "HgN/A
4:00 PM72 °FScattered clouds.18 mph50%29.59 "HgN/A
3:30 PM73 °FScattered clouds.21 mph44%29.59 "HgN/A
3:00 PM73 °FScattered clouds.20 mph44%29.59 "HgN/A
2:30 PM75 °FScattered clouds.18 mph39%29.62 "HgN/A
2:00 PM75 °FScattered clouds.16 mph34%29.62 "HgN/A
1:30 PM75 °FPassing clouds.14 mph34%29.62 "HgN/A
1:00 PM75 °FPassing clouds.13 mph29%29.62 "HgN/A
12:30 PM75 °FPassing clouds.12 mph27%29.65 "HgN/A
12:00 PM73 °FPassing clouds.13 mph29%29.65 "HgN/A
11:30 AM73 °FPassing clouds.10 mph29%29.65 "HgN/A
11:00 AM72 °FPassing clouds.13 mph29%29.65 "HgN/A
10:30 AM70 °FPassing clouds.15 mph31%29.65 "HgN/A
10:00 AM68 °FPassing clouds.16 mph35%29.65 "HgN/A
9:30 AM66 °FPassing clouds.3 mph46%29.68 "HgN/A
9:00 AM66 °FPassing clouds.8 mph46%29.65 "HgN/A
8:30 AM63 °FPassing clouds.5 mph56%29.65 "HgN/A
8:00 AM59 °FPassing clouds.6 mph63%29.65 "HgN/A
7:30 AM61 °FPassing clouds.2 mph59%29.65 "HgN/A
7:00 AM63 °FPassing clouds.8 mph56%29.65 "HgN/A
6:30 AM61 °FPassing clouds.5 mph83%29.65 "HgN/A
6:00 AM61 °FClear.3 mph88%29.65 "Hg4 mi
5:30 AM59 °FClear.5 mph94%29.62 "Hg4 mi
5:00 AM57 °FClear.3 mph94%29.62 "Hg10 mi
4:30 AM59 °FClear.2 mph88%29.62 "Hg10 mi
4:00 AM59 °FClear.2 mph88%29.62 "Hg10 mi
3:30 AM61 °FClear.2 mph88%29.62 "Hg10 mi
3:00 AM59 °FClear.1 mph88%29.62 "Hg10 mi
2:30 AM61 °FClear.1 mph88%29.62 "Hg10 mi
2:00 AM63 °FClear.No wind83%29.62 "Hg10 mi
1:30 AM64 °FPassing clouds.3 mph78%29.62 "HgN/A
1:00 AM64 °FPassing clouds.5 mph83%29.62 "HgN/A
12:30 AM64 °FPassing clouds.8 mph83%29.62 "HgN/A
12:00 AM64 °FClear.10 mph83%29.59 "Hg10 mi
Weather by CustomWeather, © 2014

See weather overview